FW9842 Weather Reports


time (UTC)temp
C
wind
direction
speed
KPH
gust
KPH
rain 1hr
cm
rain 24hr
cm
rain mn
cm
humidity
%
barometer
mb
20260506084003 10 244 9.7 24.1 0.00 0.00 0.00 91 1019.2
20260506083503 10 244 11.3 17.7 0.00 0.00 0.00 91 1019.2
20260506083003 10 240 11.3 17.7 0.00 0.00 0.00 91 1019.2
20260506081003 10 244 9.7 19.3 0.00 0.00 0.00 91 1019.3
20260506080503 10 241 11.3 22.5 0.00 0.00 0.00 92 1019.4
20260506073503 10 230 9.7 17.7 0.00 0.00 0.00 93 1019.5
20260506073003 10 237 9.7 22.5 0.00 0.00 0.00 93 1019.6
20260506072503 10 240 9.7 24.1 0.00 0.00 0.00 93 1019.6
20260506072003 10 238 9.7 24.1 0.00 0.00 0.00 93 1019.5
20260506071503 10 241 11.3 24.1 0.00 0.00 0.00 94 1019.6
20260506071003 10 245 11.3 24.1 0.00 0.00 0.00 94 1019.5
20260506070503 10 243 11.3 24.1 0.00 0.00 0.00 94 1019.5
20260506062503 8 246 11.3 27.4 0.00 0.00 0.00 95 1019.7
20260506062003 8 243 12.9 29.0 0.00 0.00 0.00 95 1019.8
20260506061503 8 246 14.5 29.0 0.00 0.00 0.00 95 1019.8
20260506061003 8 249 14.5 30.6 0.00 0.00 0.00 95 1019.8
20260506060503 8 247 16.1 30.6 0.00 0.00 0.00 95 1019.8
20260506051003 7 244 16.1 27.4 0.00 0.00 0.00 94 1019.0
20260506050503 7 246 17.7 29.0 0.00 0.00 0.00 94 1019.2
20260506045003 7 248 19.3 38.6 0.00 0.00 0.00 93 1019.5
20260506044503 7 252 17.7 38.6 0.00 0.00 0.00 93 1019.5
20260506044003 7 251 16.1 35.4 0.00 0.00 0.00 93 1019.6
20260506043504 7 251 16.1 30.6 0.00 0.00 0.00 92 1019.6
20260506043003 7 248 14.5 27.4 0.00 0.00 0.00 92 1019.7
20260506042503 7 247 14.5 38.6 0.00 0.00 0.00 92 1019.7
20260506042003 7 244 16.1 38.6 0.00 0.00 0.00 92 1019.8
20260506041503 7 240 16.1 32.2 0.00 0.00 0.00 92 1019.6
20260506041003 7 249 17.7 35.4 0.00 0.00 0.00 92 1019.6
20260506040503 7 252 19.3 35.4 0.00 0.00 0.00 92 1019.5
20260506040003 7 249 16.1 33.8 0.00 0.00 0.00 91 1019.4
20260506035504 7 250 16.1 32.2 0.00 0.00 0.00 91 1019.4
20260506035004 7 251 17.7 32.2 0.00 0.00 0.00 91 1019.4
20260506034503 7 251 17.7 30.6 0.00 0.00 0.00 91 1019.4
20260506034003 7 253 16.1 32.2 0.00 0.00 0.00 91 1019.4
20260506033503 7 254 16.1 32.2 0.00 0.00 0.00 91 1019.4
20260506033004 7 255 16.1 30.6 0.00 0.00 0.00 91 1019.3
20260506032503 7 254 17.7 32.2 0.00 0.00 0.00 90 1019.1
20260506032003 7 253 17.7 32.2 0.00 0.00 0.00 90 1019.0
20260506031525 7 255 14.5 27.4 0.00 0.00 0.00 90 1019.1
20260506031003 7 254 14.5 27.4 0.00 0.00 0.00 90 1019.0
20260506030503 7 250 14.5 27.4 0.00 0.00 0.00 90 1019.0
20260506030003 7 252 16.1 27.4 0.00 0.00 0.00 90 1018.9
20260506025503 7 256 14.5 25.7 0.00 0.00 0.00 90 1018.9
20260506025003 7 256 12.9 22.5 0.00 0.00 0.00 90 1018.8
20260506024503 6 255 14.5 29.0 0.00 0.00 0.00 90 1018.9
20260506024003 6 254 16.1 29.0 0.00 0.00 0.00 89 1018.7
20260506023503 6 253 17.7 25.7 0.00 0.00 0.00 89 1018.7
20260506023003 6 252 19.3 25.7 0.00 0.00 0.00 89 1018.6
20260506022503 6 255 17.7 33.8 0.00 0.00 0.00 89 1018.4
20260506022003 6 254 17.7 33.8 0.00 0.00 0.00 89 1018.5
20260506021503 7 253 17.7 30.6 0.00 0.00 0.00 88 1018.4
20260506021003 7 253 16.1 30.6 0.00 0.00 0.00 88 1018.4
20260506020503 7 249 16.1 32.2 0.00 0.00 0.00 88 1018.5
20260506020003 7 248 14.5 32.2 0.00 0.00 0.00 88 1018.5
20260506015503 7 250 16.1 29.0 0.00 0.00 0.00 88 1018.3
20260506015003 7 248 16.1 30.6 0.00 0.00 0.00 88 1018.4
20260506014503 7 248 14.5 30.6 0.00 0.00 0.00 88 1018.4
20260506014003 7 254 14.5 29.0 0.00 0.00 0.00 88 1018.3
20260506013503 7 259 14.5 29.0 0.00 0.00 0.00 87 1018.1
20260506013003 7 255 14.5 29.0 0.00 0.00 0.00 87 1018.1
20260506012503 7 251 17.7 29.0 0.00 0.00 0.00 87 1018.0
20260506012024 7 252 17.7 29.0 0.00 0.00 0.00 87 1017.9
20260506011503 7 255 17.7 32.2 0.00 0.00 0.00 87 1017.9
20260506011024 7 254 16.1 37.0 0.00 0.00 0.00 87 1017.9
20260506010503 7 256 14.5 37.0 0.00 0.00 0.00 87 1017.9
20260506010024 7 261 12.9 24.1 0.00 0.00 0.00 87 1017.8
20260506005503 7 261 12.9 27.4 0.00 0.00 0.00 87 1017.6
20260506005004 7 258 12.9 27.4 0.00 0.00 0.00 87 1017.6
20260506004503 7 260 12.9 32.2 0.00 0.00 0.00 86 1017.5
20260506004003 7 264 14.5 32.2 0.00 0.00 0.00 86 1017.6
20260506003524 7 261 14.5 29.0 0.00 0.00 0.00 86 1017.5
20260506003003 7 259 14.5 29.0 0.00 0.00 0.00 86 1017.3
20260506002503 7 257 14.5 25.7 0.00 0.00 0.00 86 1017.3
20260506002003 7 255 12.9 25.7 0.00 0.00 0.00 85 1017.2
20260506001503 7 259 11.3 25.7 0.00 0.00 0.00 85 1017.2
20260506001003 7 255 12.9 20.9 0.00 0.00 0.00 85 1017.1
20260506000503 7 255 12.9 20.9 0.00 0.00 0.00 84 1017.1
20260506000003 7 255 14.5 24.1 0.00 0.00 0.00 84 1017.1
20260505235503 7 252 14.5 25.7 0.00 0.00 0.00 84 1017.1
20260505235003 7 250 14.5 25.7 0.00 0.00 0.00 83 1017.0
20260505234504 7 250 12.9 22.5 0.00 0.00 0.00 83 1016.8
20260505233504 7 251 17.7 32.2 0.00 0.00 0.00 82 1016.6
20260505233003 7 247 17.7 32.2 0.00 0.00 0.00 82 1016.5
20260505232503 7 243 16.1 33.8 0.00 0.00 0.00 81 1016.4
20260505232003 7 242 16.1 33.8 0.00 0.00 0.00 81 1016.2
20260505231503 7 245 14.5 25.7 0.00 0.00 0.00 80 1016.2
20260505231024 7 249 14.5 24.1 0.00 0.00 0.00 79 1016.0
20260505230503 8 248 14.5 24.1 0.00 0.00 0.00 79 1015.9
20260505230003 8 247 16.1 35.4 0.00 0.00 0.00 78 1015.7
20260505225504 8 247 16.1 35.4 0.00 0.00 0.00 78 1015.6
20260505225003 8 247 16.1 29.0 0.00 0.00 0.00 78 1015.5
20260505224503 8 246 16.1 32.2 0.00 0.00 0.00 77 1015.4
20260505224003 8 242 17.7 35.4 0.00 0.00 0.00 76 1015.3
20260505223503 9 244 16.1 35.4 0.00 0.00 0.00 76 1015.3
20260505223003 9 245 16.1 30.6 0.00 0.00 0.00 75 1015.3
20260505222503 10 247 14.5 29.0 0.00 0.00 0.00 74 1015.1
20260505222024 10 247 14.5 25.7 0.00 0.00 0.00 74 1015.1
20260505221503 10 247 16.1 32.2 0.00 0.00 0.00 73 1014.9
20260505221003 10 247 16.1 32.2 0.00 0.00 0.00 73 1014.8
20260505220503 10 245 14.5 24.1 0.00 0.00 0.00 72 1014.8
20260505220003 11 239 14.5 27.4 0.00 0.00 0.00 71 1014.8
20260505215503 11 237 12.9 27.4 0.00 0.00 0.00 70 1014.9
20260505215003 11 233 12.9 27.4 0.00 0.00 0.00 69 1014.7
20260505214524 11 233 14.5 27.4 0.00 0.00 0.00 68 1014.7
20260505214003 12 234 12.9 25.7 0.00 0.00 0.00 67 1014.5
20260505213503 12 231 11.3 25.7 0.00 0.00 0.00 66 1014.4
20260505213003 12 230 11.3 27.4 0.00 0.00 0.00 65 1014.4
20260505212503 13 237 14.5 30.6 0.00 0.00 0.00 64 1014.3
20260505212003 13 246 19.3 35.4 0.00 0.00 0.00 64 1014.1
20260505211503 13 248 20.9 40.2 0.00 0.00 0.00 62 1014.1
20260505211003 13 247 19.3 40.2 0.00 0.00 0.00 61 1013.8
20260505210525 13 246 19.3 35.4 0.00 0.00 0.00 60 1013.9
20260505210003 14 247 19.3 40.2 0.00 0.00 0.00 58 1013.7
20260505205503 14 252 22.5 40.2 0.00 0.00 0.00 57 1013.7
20260505205003 14 245 24.1 37.0 0.00 0.00 0.00 56 1013.6
20260505204503 14 236 22.5 40.2 0.00 0.00 0.00 54 1013.6
20260505204003 15 237 19.3 40.2 0.00 0.00 0.00 52 1013.7
20260505203503 15 231 19.3 35.4 0.00 0.00 0.00 51 1013.7
20260505203003 15 224 19.3 37.0 0.00 0.00 0.00 50 1013.6
20260505202503 15 233 19.3 40.2 0.00 0.00 0.00 48 1013.5
20260505202003 15 248 19.3 40.2 0.00 0.00 0.00 45 1013.5
20260505201503 15 250 19.3 41.8 0.00 0.00 0.00 42 1013.4
20260505201024 15 243 19.3 41.8 0.00 0.00 0.00 40 1013.3
20260505200524 15 236 19.3 38.6 0.00 0.00 0.00 38 1013.4
20260505200003 15 242 19.3 38.6 0.00 0.00 0.00 38 1013.4
20260505195503 16 250 20.9 37.0 0.00 0.00 0.00 39 1013.1
20260505195003 16 257 17.7 33.8 0.00 0.00 0.00 38 1013.0
20260505194503 15 263 17.7 37.0 0.00 0.00 0.00 38 1013.1
20260505194003 16 255 20.9 41.8 0.00 0.00 0.00 39 1013.0
20260505193525 15 247 20.9 41.8 0.00 0.00 0.00 39 1013.0
20260505193003 15 252 24.1 46.7 0.00 0.00 0.00 41 1012.9
20260505192524 15 254 29.0 49.9 0.00 0.00 0.00 41 1012.9
20260505192003 15 251 27.4 49.9 0.00 0.00 0.00 43 1012.8
20260505191524 15 251 27.4 49.9 0.00 0.00 0.00 42 1013.1
20260505191003 15 249 25.7 49.9 0.00 0.00 0.00 43 1012.8
20260505190503 15 247 25.7 53.1 0.00 0.00 0.00 44 1012.6
20260505190004 15 252 27.4 53.1 0.00 0.00 0.00 43 1012.7
20260505185503 15 251 30.6 54.7 0.00 0.00 0.00 44 1012.7
20260505185003 15 248 32.2 54.7 0.00 0.00 0.00 44 1012.6
20260505184503 15 254 30.6 56.3 0.00 0.00 0.00 43 1012.5
20260505184024 15 256 30.6 56.3 0.00 0.00 0.00 42 1012.4
20260505183503 15 255 30.6 57.9 0.00 0.00 0.00 45 1012.4
20260505183003 15 257 27.4 57.9 0.00 0.00 0.00 44 1012.4
20260505182503 15 255 25.7 46.7 0.00 0.00 0.00 45 1012.4
20260505182003 15 259 27.4 46.7 0.00 0.00 0.00 43 1012.3
20260505181503 15 261 27.4 49.9 0.00 0.00 0.00 46 1012.3
20260505181024 15 257 29.0 51.5 0.00 0.00 0.00 44 1012.3
20260505180503 15 254 27.4 54.7 0.00 0.00 0.00 45 1012.5
20260505180003 15 255 27.4 54.7 0.00 0.00 0.00 46 1012.6
20260505175503 15 258 25.7 45.1 0.00 0.00 0.00 46 1012.4
20260505175025 15 253 25.7 45.1 0.00 0.00 0.00 45 1012.4
20260505174503 15 254 24.1 45.1 0.00 0.00 0.00 45 1012.4
20260505174003 15 252 22.5 45.1 0.00 0.00 0.00 47 1012.3
20260505173503 15 247 22.5 45.1 0.00 0.00 0.00 46 1012.1
20260505173003 15 248 20.9 45.1 0.00 0.00 0.00 47 1012.1
20260505172503 15 251 24.1 51.5 0.00 0.00 0.00 47 1012.0
20260505172003 15 256 27.4 51.5 0.00 0.00 0.00 44 1012.2
20260505171524 15 257 24.1 48.3 0.00 0.00 0.00 47 1012.0
20260505171003 15 252 24.1 48.3 0.00 0.00 0.00 46 1011.9
20260505170504 14 252 27.4 53.1 0.00 0.00 0.00 46 1011.7
20260505170003 15 249 29.0 53.1 0.00 0.00 0.00 46 1011.7
20260505165524 15 247 27.4 49.9 0.00 0.00 0.00 45 1011.8
20260505165003 15 256 29.0 51.5 0.00 0.00 0.00 46 1011.7
20260505164503 15 263 30.6 57.9 0.00 0.00 0.00 46 1011.7
20260505164003 15 262 29.0 57.9 0.00 0.00 0.00 46 1011.5
20260505163503 15 263 27.4 49.9 0.00 0.00 0.00 44 1011.7
20260505163003 15 255 22.5 46.7 0.00 0.00 0.00 42 1011.4
20260505162503 15 243 22.5 46.7 0.00 0.00 0.00 41 1011.3
20260505162003 15 254 25.7 49.9 0.00 0.00 0.00 38 1011.2
20260505161524 15 261 27.4 49.9 0.00 0.00 0.00 43 1010.9
20260505161003 15 257 24.1 49.9 0.00 0.00 0.00 43 1010.9
20260505160503 15 255 22.5 37.0 0.00 0.00 0.00 40 1010.9
20260505153003 15 247 25.7 51.5 0.00 0.00 0.00 43 1010.7
20260505152504 14 245 25.7 46.7 0.00 0.00 0.00 44 1010.7
20260505152003 14 248 29.0 49.9 0.00 0.00 0.00 44 1010.8
20260505151524 14 253 27.4 49.9 0.00 0.00 0.00 47 1010.7
20260505151003 14 255 24.1 41.8 0.00 0.00 0.00 48 1010.6
20260505150503 14 262 25.7 45.1 0.00 0.00 0.00 47 1010.6
20260505140524 13 255 20.9 46.7 0.00 0.00 0.00 55 1010.2
20260505125024 11 257 25.7 46.7 0.00 0.00 0.00 68 1009.3
20260505124503 11 256 24.1 46.7 0.00 0.00 0.00 68 1009.3
20260505124003 11 256 22.5 45.1 0.00 0.00 0.00 68 1009.1
20260505123503 11 249 22.5 35.4 0.00 0.00 0.00 69 1009.1
20260505123003 11 248 25.7 45.1 0.00 0.00 0.00 68 1009.0
20260505122503 11 250 25.7 45.1 0.00 0.00 0.00 70 1009.0
20260505122003 11 249 24.1 43.5 0.00 0.00 0.00 70 1008.9
20260505121503 11 245 20.9 37.0 0.00 0.00 0.00 71 1008.8
20260505120503 10 256 20.9 33.8 0.00 0.00 0.00 73 1008.5
20260505115503 10 243 16.1 33.8 0.00 0.00 0.00 75 1008.4
20260505115003 10 242 19.3 38.6 0.00 0.00 0.00 75 1008.4
20260505114503 10 242 16.1 38.6 0.00 0.00 0.00 76 1008.5
20260505114003 10 241 12.9 33.8 0.00 0.00 0.00 78 1008.4
20260505113503 9 236 16.1 33.8 0.00 0.00 0.00 79 1008.4
20260505113024 9 235 14.5 32.2 0.00 0.00 0.00 79 1008.3
20260505112503 8 239 14.5 33.8 0.00 0.00 0.00 79 1008.1
20260505112003 8 242 16.1 33.8 0.00 0.00 0.00 79 1008.1
20260505111503 8 236 16.1 33.8 0.00 0.00 0.00 80 1008.0
20260505111003 8 234 16.1 33.8 0.00 0.00 0.00 80 1008.0
20260505110503 8 236 14.5 25.7 0.00 0.00 0.00 81 1008.0
20260505102003 6 236 14.5 24.1 0.00 0.00 0.00 85 1007.6
20260505101503 6 238 12.9 24.1 0.00 0.00 0.00 86 1007.6
20260505101003 6 245 12.9 30.6 0.00 0.00 0.00 86 1007.5
20260505100503 6 249 12.9 30.6 0.00 0.00 0.00 86 1007.4
20260505100003 6 250 14.5 35.4 0.00 0.00 0.00 86 1007.3
20260505095503 6 244 17.7 35.4 0.00 0.00 0.00 87 1006.9
20260505095003 5 237 16.1 33.8 0.00 0.00 0.00 87 1006.9
20260505094503 5 233 16.1 33.8 0.00 0.00 0.00 87 1006.8
20260505094004 5 233 16.1 33.8 0.00 0.00 0.00 87 1006.7
20260505093505 5 234 16.1 33.8 0.00 0.00 0.00 87 1006.7
20260505093004 5 237 16.1 33.8 0.00 0.00 0.00 87 1006.7
20260505092504 5 240 16.1 30.6 0.00 0.00 0.00 88 1006.7
20260505092004 5 238 14.5 25.7 0.00 0.00 0.00 92 1006.7
20260505091504 5 235 14.5 33.8 0.00 0.00 0.00 88 1006.6
20260505091004 5 238 16.1 33.8 0.00 0.00 0.00 88 1006.7
20260505090504 5 245 14.5 30.6 0.00 0.00 0.00 88 1006.5
20260505090004 5 241 12.9 24.1 0.00 0.00 0.00 88 1006.4
20260505085504 5 243 12.9 25.7 0.00 0.00 0.00 88 1006.2
20260505085004 5 245 12.9 25.7 0.00 0.00 0.00 88 1006.4
20260505084504 4 248 12.9 22.5 0.00 0.00 0.00 88 1006.3